Погода в Шумовке

Россия / Ульяновская область     54°30′54″N   48°12′41″E
темп.,
°C
ветер,
м/с
пор.,
м/с
влажн.,
%
обл.,
%
осадки,
мм/ч
давл.,
гПа
погр.,
м
8 марта, пн
пн801:00−5ююз81493100 0.6 998915
04:00−4ююз81692100 0.8 995820
07:00−4зюз9168587 0.1 994684
10:00−6зюз8148768 0.1 998665
13:00−5зюз7127627 0.0 1001973
16:00−4юз388532 0.0 1000538
19:00−4ююз3996100 1.1 1000462
22:00−8з2297100 2.6 100251
9 марта, вт
вт901:00−8зсз359599 1.3 1004148
04:00−13зсз459450 1.3 100771
07:00−15з34940 0.0 100960
10:00−13з36920 0.0 1010169
13:00−10зсз248726 0.0 1011274
16:00−9зсз238958 0.0 1011254
19:00−11ссз119699 0.1 101127
22:00−12ссз3695100 0.3 1012171
10 марта, ср
ср1001:00−15сз479699 0.0 1012154
04:00−17ссз5109594 0.1 1013238
07:00−18сз61094100 0.1 1015271
10:00−20сз7119499 0.1 1016335
13:00−20сз6109294 0.0 1018390
16:00−20ссз6109091 0.0 1019478
19:00−21сз5119399 0.0 1021350
22:00−23сз489675 0.0 1023162
11 марта, чт
чт1101:00−25сз47970 0.0 1024121
04:00−25сз58963 0.0 1025147
07:00−25зсз59967 0.0 1026151
10:00−21зсз611925 0.0 1026268
13:00−17зсз6108849 0.0 1025341
16:00−13зсз6108974 0.1 1025594
19:00−15зсз499299 0.0 1026223
22:00−15зсз489495 0.1 1028177
12 марта, пт
пт1201:00−16зсз479659 0.0 102992
04:00−17зсз349763 0.0 103064
07:00−19зсз349620 0.0 103152
10:00−16зсз239210 0.0 1032124
13:00−12з23870 0.0 1031223
16:00−11ююз12870 0.0 1031162
19:00−14ю23930 0.0 103021
22:00−14ю349514 0.0 103042